Find Amazonas Nexus

NORAD ID: 55508 Int'l Des: 2023-017 Owner: HISPM/HISP Country: BR operational
HEOCIRCULARGSOGEO

リアルタイム位置

3D地球を読み込み中...

Amazonas Nexusについて

説明を読み込み中...

次回通過

Passes for default location (London). Set your location on the main map for personalized predictions.

高度履歴

Loading altitude history...

軌道要素

1 55508U 23017A 26126.25025128 -.00000275 00000-0 00000-0 0 9993
2 55508 0.0451 43.2364 0005567 0.7556 209.2256 1.00270108 6622
Epoch: May 6, 2026 • Age: 9 hours

現在のステータス

高度 35763.5 km
速度 3.08 km/s
衛星直下点 0.01°N, 61.01°W
打ち上げ日 Feb 7, 2023
運用期間 3.2 years
タイプ other

技術仕様

分類 Payload
質量 4500.00 kg
乾燥質量 4200.00 kg
総質量 4500.00 kg
長さ 8.80 m
直径 3.50 m
スパン 45.00 m
形状 Box + 2 Pan
製造者 THALES
バスタイプ Spacebus NEO200
フェーズステータス In Orbit
所有者/国 HISPM/HISP/BR

Most Searched